Regional Weather Roundup
Issued by NWS

Home | Current Version | Previous Version | Graphics & Text | Print | Product List | Glossary On
Versions: 1 2 3 4 5 6 7 8 9 10 11 12 13 14 15 16 17 18 19 20 21 22 23 24 25 26 27 28 29 30 31 32 33 34 35 36 37 38 39 40 41 42 43 44 45 46 47 48 49 50
000
ASUS43 KDTX 281210
RWRMI
MICHIGAN HOURLY REGIONAL WEATHER ROUNDUP
NATIONAL WEATHER SERVICE DETROIT/PONTIAC MI
800 AM EDT TUE JUL 28 2015

NOTE: "FAIR" INDICATES FEW OR NO CLOUDS BELOW 12,000 FEET WITH NO
SIGNIFICANT WEATHER AND/OR OBSTRUCTION TO VISIBILITY.

MIZ047>049-052>055-059>063-066>070-074>076-081>083-281300-
SOUTHEAST LOWER MICHIGAN

CITY           SKY/WX    TMP DP  RH WIND       PRES   REMARKS
ADRIAN         SUNNY     67  63  87 CALM      30.06R
6HR MIN TEMP:  60; 6HR MAX TEMP:  67;

ALMA           SUNNY     67  66  97 CALM      30.06S
ANN ARBOR      SUNNY     66  65  96 CALM      30.06R
BAD AXE        SUNNY     69  64  84 CALM      30.06S
CARO           SUNNY     68  64  89 CALM      30.05S
DETROIT CITY   SUNNY     73  64  73 CALM      30.05S
6HR MIN TEMP:  68; 6HR MAX TEMP:  73;

DETROIT        MOSUNNY   74  65  73 CALM      30.05S
6HR MIN TEMP:  69; 6HR MAX TEMP:  74;

FLINT          SUNNY     70  64  81 S3        30.06S
6HR MIN TEMP:  63; 6HR MAX TEMP:  71;

GROSSE ILE     SUNNY     73  64  73 CALM      30.04R
HILLSDALE      SUNNY     69  67  93 E3        30.06S
HOWELL         SUNNY     67  66  95 CALM      30.06S
6HR MIN TEMP:  61; 6HR MAX TEMP:  67;


CITY           SKY/WX    TMP DP  RH WIND       PRES   REMARKS
JACKSON        SUNNY     67  64  90 CALM      30.06S
6HR MIN TEMP:  60; 6HR MAX TEMP:  67;

LAMBERTVILLE   SUNNY     68  65  90 CALM      30.04F
6HR MIN TEMP:  63; 6HR MAX TEMP:  68;

LANSING        SUNNY     70  66  87 CALM      30.07R
6HR MIN TEMP:  63; 6HR MAX TEMP:  70;

LAPEER         FAIR      65  63  95 CALM      30.07R
MASON          SUNNY     63  62  97 CALM      30.07R
MONROE         SUNNY     68  66  92 CALM      30.04S
6HR MIN TEMP:  61; 6HR MAX TEMP:  68;

MT. CLEMENS    SUNNY     70  65  83 NW1       30.03R
6HR MIN TEMP:  64; 6HR MAX TEMP:  70;

PONTIAC        MOSUNNY   71  66  84 CALM      30.06R
6HR MIN TEMP:  64; 6HR MAX TEMP:  71;

PORT HOPE        N/A     72  67  84 CALM      30.04R
6HR MIN TEMP:  64; 6HR MAX TEMP:  72;

PORT HURON     SUNNY     64  64 100 CALM      30.06R
TRI CITIES     SUNNY     71  65  81 CALM      30.06R
6HR MIN TEMP:  67; 6HR MAX TEMP:  74;

MIDLAND        FAIR      67  65  93 CALM      30.04S
TROY           SUNNY     73  64  73 CALM      30.07S
SAGINAW HB     SUNNY     70  64  83 CALM      30.04S
$$
MIZ043>046-050>051-056>058-064>065-071>073-077>080-281300-
SOUTHWEST LOWER MICHIGAN

CITY           SKY/WX    TMP DP  RH WIND       PRES   REMARKS
BATTLE CREEK   SUNNY     70  64  81 CALM      30.06R
6HR MIN TEMP:  64; 6HR MAX TEMP:  71;

BENTON HARBOR  SUNNY     68  63  84 E3        30.02R
6HR MIN TEMP:  61; 6HR MAX TEMP:  68;

BIG RAPIDS     SUNNY     64  62  91 CALM      30.05S
6HR MIN TEMP:  61; 6HR MAX TEMP:  65;

COLDWATER      SUNNY     64  63  99 CALM      30.05S FOG
6HR MIN TEMP:  58; 6HR MAX TEMP:  66;

FREMONT        FAIR      67  64  91 SE3       30.03S
6HR MIN TEMP:  61; 6HR MAX TEMP:  67;

HOLLAND        SUNNY     68  65  90 CALM      30.03F
6HR MIN TEMP:  63; 6HR MAX TEMP:  69;

GRAND RAPIDS   MOSUNNY   69  65  86 E3        30.05S
6HR MIN TEMP:  65; 6HR MAX TEMP:  71;

IONIA          FAIR      69  67  93 CALM      30.04F
KALAMAZOO      SUNNY     69  63  81 CALM      30.05R
6HR MIN TEMP:  63; 6HR MAX TEMP:  69;

LUDINGTON      SUNNY     66  63  89 CALM      30.02S
6HR MIN TEMP:  58; 6HR MAX TEMP:  66;

MARSHALL       SUNNY     65  64  95 CALM      30.05S
MOUNT PLEASANT SUNNY     66  65  94 CALM      30.04F
6HR MIN TEMP:  62; 6HR MAX TEMP:  67;

MUSKEGON       MOSUNNY   70  63  78 SE7       30.02F
6HR MIN TEMP:  63; 6HR MAX TEMP:  71;

SOUTH HAVEN    SUNNY     68  63  83 E6        30.02S
$$
MIZ016>042-281300-
NORTHERN LOWER MICHIGAN

CITY           SKY/WX    TMP DP  RH WIND       PRES   REMARKS
ALPENA         SUNNY     70  63  78 CALM      30.05S
6HR MIN TEMP:  61; 6HR MAX TEMP:  70;

BEAVER ISLAND  SUNNY     67  65  93 CALM      30.03S
6HR MIN TEMP:  58; 6HR MAX TEMP:  67;

BELLAIRE       SUNNY     64  61  93 CALM      30.04S
6HR MIN TEMP:  56; 6HR MAX TEMP:  64;

CADILLAC       SUNNY     65  60  83 CALM      30.06S
CHARLEVOIX     SUNNY     67  61  80 SE5       30.06S
6HR MIN TEMP:  62; 6HR MAX TEMP:  67;

FRANKFORT      SUNNY     65  60  82 CALM      30.02S
GAYLORD        SUNNY     67  62  84 CALM      30.08R
6HR MIN TEMP:  58; 6HR MAX TEMP:  67;

GRAYLING       SUNNY     63  58  85 CALM      30.08R
6HR MIN TEMP:  55; 6HR MAX TEMP:  63;

HARBOR SPRINGS SUNNY     66  63  88 CALM      30.04S
HOUGHTON LAKE  SUNNY     64  62  93 CALM      30.07S
6HR MIN TEMP:  57; 6HR MAX TEMP:  65;

MANISTEE       SUNNY     63  57  82 E5        30.02F
OSCODA         SUNNY     67  61  83 N6        30.05R
PELLSTON       SUNNY     64  60  87 CALM      30.05S
6HR MIN TEMP:  55; 6HR MAX TEMP:  64;

ROGERS CITY    SUNNY     73  63  72 CALM      30.05S
TRAVERSE CITY  MOSUNNY   69  62  78 CALM      30.01F
6HR MIN TEMP:  62; 6HR MAX TEMP:  69;

$$
MIZ007>008-015-281300-
EASTERN UPPER MICHIGAN

CITY           SKY/WX    TMP DP  RH WIND       PRES   REMARKS
KINROSS        SUNNY     72  64  78 CALM      30.03F
6HR MIN TEMP:  63; 6HR MAX TEMP:  72;

MACKINAC ISLAN SUNNY     71  64  78 CALM      30.04S
MUNISING         N/A     69  63  81 S6        30.00S
6HR MIN TEMP:  64; 6HR MAX TEMP:  72;

$$
MIZ004>006-011>014-085-281300-
CENTRAL UPPER MICHIGAN

CITY           SKY/WX    TMP DP  RH WIND       PRES   REMARKS
MANISTIQUE     SUNNY     66  64  94 CALM      30.02S
ESCANABA       SUNNY     61  59  94 CALM      30.01R
6HR MIN TEMP:  54; 6HR MAX TEMP:  61;

MENOMINEE      SUNNY     64  63  94 CALM      30.00S
6HR MIN TEMP:  61; 6HR MAX TEMP:  66;

SAWYER-GWINN   SUNNY     64  61  88 S7        30.02R
$$
MIZ001>003-009>011-084-281300-
WESTERN UPPER MICHIGAN

CITY           SKY/WX    TMP DP  RH WIND       PRES   REMARKS
IRON MOUNTAIN  SUNNY     63  60  90 S3        30.00F
6HR MIN TEMP:  57; 6HR MAX TEMP:  66;

HOUGHTON       SUNNY     67  63  87 S3        29.96R
6HR MIN TEMP:  59; 6HR MAX TEMP:  67;

COPPER HARBOR    N/A     71  62  73 W6        29.95R
6HR MIN TEMP:  68; 6HR MAX TEMP:  72;

IRONWOOD       MOSUNNY   70  63  78 S10       29.90S
6HR MIN TEMP:  70; 6HR MAX TEMP:  73;

$$

ABBREVIATIONS USED IN REMARKS
   TC - TEMPERATURE IN CELSIUS
  WCI - WIND CHILL INDEX
   HX - HEAT INDEX
  VSB - VISIBILITY




USA.gov is the U.S. government's official web portal to all federal, state and local government web resources and services.